Updated18/10/2017 23:05 
 

GeoURL
free counters
Scottish Weather Network UK Weather Network Cumulus Top Weather Sites

Peebles Weather - Advisories

Raw Data, Raw Data Expanded

Ignore low humidity and Dew Point values. Something wrong with the sensor.
Daytime temperatures are in direct sunlight so may be higher than official air temperature values.

Warnings and solar data not updating. Currently under investigation. (27th Oct 2016)

2017/10/18 21:50 EGPH 182150Z 06007KT 9999 BKN015 10/09 Q1008
10.0°C 0.0 mm 1.2 mm 2.1 mm 3.3 mph 3.8 mph 1005.0 hPa 37% X-Ray Solar Flare Level
Planetary K-Index
Planetary K-Index History
Station Warn Rain Snow Flood Wind Ltng Heat Cold Glob Moon Temp Rain 1h Rain Wed Rain 24h Wind 10m Gust Pressure Hum Proton Levels

0.715 m New moon Cool F1-NW F:73 A:5 Kp:0 SSN:0

This Weather Widget is provided by the Met Office

METEOalarm.eu Weather warnings: Lothian & Borders

 No special awareness required

Warning data courtesy of and Copyright © EUMETNET-METEOalarm (http://www.meteoalarm.eu/).
Used with permission.
Time delays between this website and the www.meteoalarm.eu website are possible, for the most up to date information about alert levels as published by the participating National Meteorological Services please use www.meteoalarm.eu

 

XHTML 1.1 | CSS